This demonstration page uses our WeatherBlox Daily Observations layout. Learn more.

Left ArrowRight Arrow

Hourly Observations for October 3, 2022

Temp ( °F °C ) Dew Point ( °F °C ) Humidity (%) Winds ( mph kmh ) Pressure ( in mb ) Visibility ( mi km ) Precip ( " mm )
12:37 am 00:37 Cloudy with Light Rain 59 15 55 12.8 87 87 N 23 37 29.99 1016 5 8 0.04 1.02
12:44 am 00:44 Cloudy with Light Rain 59 15 55 12.8 87 87 N 20 31 29.99 1016 6 10 0.05 1.27
12:59 am 00:59 Cloudy 59 15 54 12.2 83 83 N 24 39 29.98 1015 9 14 0.05 1.27
1:25 am 01:25 Cloudy with Light Rain 58 14.4 54 12.2 87 87 N 24 39 29.98 1015 3 5 0.02 0.51
1:59 am 01:59 Cloudy with Light Rain 58 14.4 55 12.8 90 90 N 21 33 29.98 1015 3 5 0.03 0.76
2:59 am 02:59 Cloudy with Light Rain 57 13.9 53 11.7 87 87 N 26 43 29.98 1015 6 10 0.01 0.25
3:27 am 03:27 Cloudy with Light Rain 57 13.9 52 11.1 83 83 N 29 46 29.99 1016 6 10 0.01 0.25
3:59 am 03:59 Cloudy with Light Rain 56 13.3 51 10.6 84 84 N 24 39 29.98 1015 4 6 0.01 0.25
4:17 am 04:17 Cloudy with Light Rain 56 13.3 51 10.6 84 84 N 24 39 29.99 1016 5 8 0.01 0.13
4:36 am 04:36 Cloudy with Light Rain 55 12.8 51 10.6 86 86 N 20 31 29.99 1016 4 6 0.01 0.13
4:59 am 04:59 Cloudy with Light Rain 55 12.8 51 10.6 86 86 N 23 37 29.99 1016 4 6 0.01 0.25
5:12 am 05:12 Cloudy with Light Rain 54 12.2 51 10.6 90 90 N 22 35 30.00 1016 3 5 0.01 0.13
5:45 am 05:45 Cloudy with Light Rain 54 12.2 51 10.6 90 90 N 20 31 30.01 1016 3 5 0.01 0.25
5:59 am 05:59 Cloudy with Light Rain 54 12.2 50 10 86 86 N 18 30 30.01 1016 3 5 0.01 0.25
6:32 am 06:32 Cloudy with Light Rain 54 12.2 50 10 86 86 N 17 28 30.03 1017 3 4 0.01 0.25
6:48 am 06:48 Cloudy with Light Rain 54 12.2 51 10.6 90 90 N 22 35 30.03 1017 3 5 0.02 0.51
6:59 am 06:59 Cloudy with Light Rain 54 12.2 51 10.6 90 90 N 17 28 30.04 1017 3 5 0.02 0.51
7:59 am 07:59 Cloudy with Light Rain 56 13.3 51 10.6 84 84 N 23 37 30.03 1017 4 6 0.01 0.13
8:59 am 08:59 Cloudy with Light Rain 56 13.3 51 10.6 84 84 N 20 31 30.04 1017 3 5 0.01 0.13
9:59 am 09:59 Cloudy with Light Rain 55 12.8 52 11.1 89 89 N 25 41 30.05 1018 2 3 0.01 0.25
10:16 am 10:16 Cloudy 55 12.8 51 10.6 86 86 N 22 35 30.06 1018 9 14 0.01 0.25
10:59 am 10:59 Cloudy with Light Rain 55 12.8 51 10.6 86 86 N 23 37 30.06 1018 2 3 0.01 0.25
11:15 am 11:15 Cloudy with Light Rain 55 12.8 51 10.6 86 86 N 20 31 30.06 1018 4 6 0.01 0.13
11:59 am 11:59 Cloudy with Light Rain 55 12.8 51 10.6 86 86 N 18 30 30.06 1018 4 6 0.01 0.13
12:59 pm 12:59 Cloudy with Light Rain 55 12.8 52 11.1 89 89 N 17 28 30.06 1018 4 6 0.01 0.25
1:09 pm 13:09 Cloudy with Light Rain 55 12.8 52 11.1 89 89 N 20 31 30.07 1018 2 3 0.01 0.25
1:14 pm 13:14 Cloudy with Light Rain 55 12.8 52 11.1 89 89 N 16 26 30.07 1018 1 2 0.02 0.51
1:29 pm 13:29 Cloudy with Light Rain 55 12.8 52 11.1 89 89 NNW 16 26 30.06 1018 3 4 0.03 0.76
1:43 pm 13:43 Cloudy with Light Rain 55 12.8 52 11.1 89 89 N 20 31 30.07 1018 3 5 0.04 1.02
1:59 pm 13:59 Cloudy with Light Rain 55 12.8 52 11.1 89 89 N 18 30 30.06 1018 2 2 0.05 1.27
2:09 pm 14:09 Cloudy with Light Rain 55 12.8 52 11.1 89 89 NNW 20 31 30.06 1018 2 3 0.01 0.25
2:18 pm 14:18 Cloudy with Light Rain 55 12.8 52 11.1 89 89 NNW 18 30 30.06 1018 3 5 0.01 0.25
2:25 pm 14:25 Cloudy with Light Rain 55 12.8 52 11.1 89 89 NNW 22 35 30.06 1018 2 3 0.02 0.51
2:37 pm 14:37 Cloudy with Light Rain 55 12.8 52 11.1 89 89 N 17 28 30.06 1018 4 6 0.02 0.51
2:59 pm 14:59 Cloudy with Light Rain 55 12.8 51 10.6 86 86 N 21 33 30.05 1018 3 5 0.02 0.51
3:02 pm 15:02 Cloudy with Light Rain 55 12.8 51 10.6 86 86 N 17 28 30.05 1018 3 4 0.01 0.13
3:37 pm 15:37 Cloudy with Light Rain 55 12.8 51 10.6 86 86 N 20 31 30.05 1018 2 2 0.02 0.51
3:53 pm 15:53 Cloudy with Light Rain 54 12 52 11 94 94 N 21 33 30.06 1018 2 3 0.04 1.02
3:59 pm 15:59 Cloudy with Light Rain 54 12.2 51 10.6 90 90 N 18 30 30.06 1018 3 4 0.04 1.02
4:21 pm 16:21 Cloudy with Light Rain 54 12.2 51 10.6 90 90 N 22 35 30.06 1018 2 2 0.02 0.51
4:38 pm 16:38 Cloudy with Light Rain 54 12.2 51 10.6 90 90 N 18 30 30.07 1018 2 3 0.04 1.02
4:46 pm 16:46 Cloudy with Light Rain 55 12.8 51 10.6 86 86 N 17 28 30.07 1018 3 4 0.04 1.02
4:59 pm 16:59 Cloudy with Light Rain 54 12.2 51 10.6 90 90 N 22 35 30.07 1018 4 6 0.04 1.02
5:41 pm 17:41 Cloudy with Light Rain 54 12.2 50 10 86 86 NNW 22 35 30.08 1019 3 4 0.01 0.25
5:59 pm 17:59 Cloudy with Light Rain 54 12.2 50 10 86 86 N 21 33 30.08 1019 3 4 0.01 0.25
6:08 pm 18:08 Cloudy with Light Rain 54 12.2 50 10 86 86 N 21 33 30.08 1019 3 5 0.01 0.13
6:21 pm 18:21 Cloudy with Light Rain 53 11.7 50 10 89 89 NNW 20 31 30.08 1019 3 4 0.01 0.13
6:35 pm 18:35 Cloudy with Light Rain 53 11.7 50 10 89 89 NNW 22 35 30.09 1019 3 5 0.01 0.13
6:59 pm 18:59 Cloudy with Light Rain 53 11.7 50 10 89 89 NNW 16 26 30.09 1019 4 6 0.01 0.13
7:12 pm 19:12 Cloudy with Light Rain 53 11.7 50 10 89 89 N 20 31 30.09 1019 4 6 0.01 0.13
7:34 pm 19:34 Cloudy with Light Rain 53 11.7 49 9.4 86 86 N 21 33 30.09 1019 4 6 0.01 0.25
7:59 pm 19:59 Cloudy with Light Rain 53 11.7 49 9.4 86 86 NNW 20 31 30.09 1019 5 8 0.01 0.25
8:59 pm 20:59 Cloudy with Light Rain 52 11.1 49 9.4 89 89 N 18 30 30.09 1019 4 6 0.01 0.13
9:59 pm 21:59 Cloudy with Light Rain 52 11.1 49 9.4 89 89 N 16 26 30.09 1019 4 6 0.01 0.25
10:59 pm 22:59 Cloudy with Light Rain 53 11.7 49 9.4 86 86 N 21 33 30.07 1018 4 6 0.01 0.25
11:59 pm 23:59 Cloudy with Light Rain 52 11.1 49 9.4 89 89 N 15 24 30.06 1018 4 6 0.01 0.13

Powered by AerisWeather